FW0394 Weather Reports


Display with metric or nautical units.
time (UTC)temp
F
wind
direction
speed
MPH
gust
MPH
rain 1hr
in
rain 24hr
in
rain mn
in
humidity
%
barometer
mb
20260503055003 56 205 5.0 12.0 0.00 0.00 0.00 42 1011.5
20260503054214 56 205 5.0 12.0 0.00 0.00 0.00 42 1011.6
20260503053713 56 206 5.0 11.0 0.00 0.00 0.00 42 1011.6
20260503053003 56 212 5.0 11.0 0.00 0.00 0.00 41 1011.6
20260503052503 56 209 5.0 15.0 0.00 0.00 0.00 41 1011.6
20260503052003 56 210 6.0 15.0 0.00 0.00 0.00 42 1011.6
20260503051503 56 210 5.0 12.0 0.00 0.00 0.00 43 1011.6
20260503051003 56 206 5.0 12.0 0.00 0.00 0.00 43 1011.5
20260503050503 56 208 5.0 13.0 0.00 0.00 0.00 44 1011.6
20260503050005 56 211 6.0 13.0 0.00 0.00 0.00 43 1011.7
20260503045503 56 207 5.0 12.0 0.00 0.00 0.00 43 1011.7
20260503045003 56 205 5.0 12.0 0.00 0.00 0.00 42 1011.8
20260503044503 57 211 5.0 10.0 0.00 0.00 0.00 42 1011.8
20260503044003 57 214 5.0 12.0 0.00 0.00 0.00 41 1011.9
20260503043503 57 205 5.0 12.0 0.00 0.00 0.00 41 1011.9
20260503043003 57 203 5.0 11.0 0.00 0.00 0.00 40 1011.9
20260503042503 58 205 5.0 11.0 0.00 0.00 0.00 41 1012.0
20260503042003 58 194 4.0 11.0 0.00 0.00 0.00 40 1012.1
20260503041503 58 188 4.0 10.0 0.00 0.00 0.00 40 1012.3
20260503041214 58 195 4.0 10.0 0.00 0.00 0.00 39 1012.2
20260503040503 58 198 4.0 11.0 0.00 0.00 0.00 39 1012.4
20260503040003 58 194 4.0 11.0 0.00 0.00 0.00 38 1012.5
20260503035503 58 187 3.0 11.0 0.00 0.00 0.00 39 1012.5
20260503035003 58 182 3.0 7.0 0.00 0.00 0.00 39 1012.6
20260503034712 59 183 4.0 8.0 0.00 0.00 0.00 38 1012.7
20260503034003 59 183 4.0 9.0 0.00 0.00 0.00 37 1012.6
20260503033503 59 176 3.0 9.0 0.00 0.00 0.00 37 1012.8
20260503033008 59 176 4.0 10.0 0.00 0.00 0.00 37 1012.8
20260503032503 59 184 5.0 10.0 0.00 0.00 0.00 37 1012.9
20260503032003 59 182 5.0 12.0 0.00 0.00 0.00 37 1012.9
20260503031503 60 178 4.0 12.0 0.00 0.00 0.00 36 1013.0
20260503031003 60 176 4.0 10.0 0.00 0.00 0.00 36 1013.1
20260503030503 60 178 5.0 9.0 0.00 0.00 0.00 35 1013.1
20260503030003 60 175 4.0 9.0 0.00 0.00 0.00 36 1013.1
20260503025504 60 173 4.0 9.0 0.00 0.00 0.00 35 1013.1
20260503025003 60 174 4.0 9.0 0.00 0.00 0.00 35 1013.1
20260503024714 59 176 3.0 8.0 0.00 0.00 0.00 35 1013.2
20260503024003 59 179 3.0 6.0 0.00 0.00 0.00 37 1013.2
20260503023503 59 177 2.0 6.0 0.00 0.00 0.00 37 1013.3
20260503023008 58 177 1.0 6.0 0.00 0.00 0.00 39 1013.3
20260503022714 58 180 1.0 6.0 0.00 0.00 0.00 38 1013.3
20260503022003 59 187 0.0 3.0 0.00 0.00 0.00 39 1013.5
20260503021714 59 189 1.0 3.0 0.00 0.00 0.00 37 1013.5
20260503021003 59 191 1.0 3.0 0.00 0.00 0.00 38 1013.5
20260503020503 60 192 1.0 3.0 0.00 0.00 0.00 39 1013.6
20260503020003 60 192 1.0 3.0 0.00 0.00 0.00 36 1013.5
20260503015503 60 193 1.0 3.0 0.00 0.00 0.00 38 1013.6
20260503015004 61 194 1.0 3.0 0.00 0.00 0.00 37 1013.7
20260503014714 61 195 1.0 3.0 0.00 0.00 0.00 37 1013.6
20260503014212 62 195 0.0 3.0 0.00 0.00 0.00 35 1013.6
20260503013503 62 0 0.0 0.0 0.00 0.00 0.00 35 1013.6
20260503013212 63 0 0.0 0.0 0.00 0.00 0.00 33 1013.6
20260503012503 63 196 1.0 3.0 0.00 0.00 0.00 35 1013.6
20260503012003 64 195 2.0 5.0 0.00 0.00 0.00 32 1013.7
20260503011503 64 199 3.0 5.0 0.00 0.00 0.00 31 1013.6
20260503011003 65 198 3.0 7.0 0.00 0.00 0.00 31 1013.6
20260503010503 65 194 3.0 7.0 0.00 0.00 0.00 31 1013.7
20260503010212 65 202 2.0 6.0 0.00 0.00 0.00 31 1013.7
20260503005503 65 209 3.0 6.0 0.00 0.00 0.00 31 1013.7
20260503005212 66 204 3.0 6.0 0.00 0.00 0.00 31 1013.7
20260503004503 66 199 3.0 7.0 0.00 0.00 0.00 30 1013.7
20260503004214 66 199 2.0 7.0 0.00 0.00 0.00 30 1013.7
20260503003503 66 194 3.0 10.0 0.00 0.00 0.00 28 1013.7
20260503003003 67 195 3.0 5.0 0.00 0.00 0.00 28 1013.8
20260503002503 67 199 3.0 5.0 0.00 0.00 0.00 28 1013.8
20260503002003 67 205 3.0 10.0 0.00 0.00 0.00 29 1013.8
20260503001503 67 208 5.0 12.0 0.00 0.00 0.00 28 1013.9
20260503001003 67 206 4.0 12.0 0.00 0.00 0.00 27 1014.0
20260503000713 67 213 3.0 10.0 0.00 0.00 0.00 28 1014.0
20260503000003 67 205 3.0 7.0 0.00 0.00 0.00 28 1014.2
20260502235503 68 199 3.0 10.0 0.00 0.00 0.00 27 1014.3
20260502235003 68 204 3.0 10.0 0.00 0.00 0.00 27 1014.5
20260502234503 68 237 4.0 9.0 0.00 0.00 0.00 27 1014.5
20260502234214 68 252 4.0 11.0 0.00 0.00 0.00 26 1014.4
20260502233713 68 252 4.0 11.0 0.00 0.00 0.00 27 1014.6
20260502233003 68 211 5.0 11.0 0.00 0.00 0.00 29 1014.7
20260502232503 68 200 5.0 13.0 0.00 0.00 0.00 26 1014.7
20260502232003 68 212 5.0 13.0 0.00 0.00 0.00 26 1014.7
20260502231214 68 221 5.0 11.0 0.00 0.00 0.00 26 1015.0
20260502230503 69 202 4.0 10.0 0.00 0.00 0.00 28 1015.1
20260502230003 69 208 4.0 10.0 0.00 0.00 0.00 25 1015.0
20260502225503 69 226 5.0 10.0 0.00 0.00 0.00 27 1015.1
20260502225003 70 228 4.0 10.0 0.00 0.00 0.00 25 1015.1
20260502224503 70 227 4.0 11.0 0.00 0.00 0.00 27 1015.2
20260502224003 70 233 4.0 11.0 0.00 0.00 0.00 28 1015.2
20260502223503 69 223 4.0 10.0 0.00 0.00 0.00 28 1015.3
20260502223003 69 206 4.0 11.0 0.00 0.00 0.00 29 1015.4
20260502222503 69 200 4.0 11.0 0.00 0.00 0.00 29 1015.4
20260502222003 69 202 4.0 11.0 0.00 0.00 0.00 29 1015.5
20260502221504 69 231 4.0 11.0 0.00 0.00 0.00 26 1015.7
20260502221003 69 233 5.0 10.0 0.00 0.00 0.00 27 1015.7
20260502220503 69 247 4.0 10.0 0.00 0.00 0.00 29 1015.8
20260502220003 69 256 5.0 10.0 0.00 0.00 0.00 29 1015.8
20260502215503 69 237 4.0 10.0 0.00 0.00 0.00 28 1015.7
20260502215003 69 215 4.0 9.0 0.00 0.00 0.00 28 1015.8
20260502214503 68 210 4.0 8.0 0.00 0.00 0.00 31 1015.9
20260502214003 68 230 5.0 15.0 0.00 0.00 0.00 27 1015.9
20260502213503 69 232 5.0 15.0 0.00 0.00 0.00 28 1016.2
20260502213003 68 236 5.0 10.0 0.00 0.00 0.00 29 1016.3
20260502212503 68 242 5.0 10.0 0.00 0.00 0.00 29 1016.2
20260502212004 68 234 6.0 16.0 0.00 0.00 0.00 31 1016.4
20260502211503 68 213 6.0 17.0 0.00 0.00 0.00 29 1016.4
20260502211003 68 195 5.0 17.0 0.00 0.00 0.00 27 1016.4
20260502210503 68 219 4.0 13.0 0.00 0.00 0.00 28 1016.5
20260502210213 68 227 5.0 13.0 0.00 0.00 0.00 28 1016.7
20260502205503 68 261 3.0 8.0 0.00 0.00 0.00 32 1016.7
20260502205213 68 258 3.0 8.0 0.00 0.00 0.00 29 1016.9
20260502204503 68 247 3.0 7.0 0.00 0.00 0.00 30 1017.0
20260502204213 68 253 3.0 12.0 0.00 0.00 0.00 34 1017.1
20260502203714 67 254 4.0 12.0 0.00 0.00 0.00 29 1017.2
20260502203003 67 251 5.0 14.0 0.00 0.00 0.00 32 1017.2
20260502202503 67 245 6.0 14.0 0.00 0.00 0.00 28 1017.4
20260502202003 67 232 5.0 13.0 0.00 0.00 0.00 33 1017.4
20260502201504 66 222 4.0 11.0 0.00 0.00 0.00 34 1017.4
20260502201003 66 225 3.0 11.0 0.00 0.00 0.00 29 1017.5
20260502200504 66 222 4.0 10.0 0.00 0.00 0.00 31 1017.5
20260502200008 67 225 4.0 10.0 0.00 0.00 0.00 33 1017.8
20260502195503 67 258 3.0 8.0 0.00 0.00 0.00 32 1017.8
20260502195003 67 268 3.0 10.0 0.00 0.00 0.00 39 1017.9
20260502194503 66 233 3.0 10.0 0.00 0.00 0.00 35 1017.9
20260502194003 66 247 4.0 9.0 0.00 0.00 0.00 38 1018.1
20260502193503 66 250 4.0 11.0 0.00 0.00 0.00 36 1018.2
20260502193003 65 207 3.0 11.0 0.00 0.00 0.00 36 1018.2
20260502192503 65 228 3.0 8.0 0.00 0.00 0.00 38 1018.3
20260502192003 65 237 4.0 10.0 0.00 0.00 0.00 35 1018.5
20260502191503 65 234 4.0 10.0 0.00 0.00 0.00 32 1018.5
20260502191003 65 244 4.0 10.0 0.00 0.00 0.00 33 1018.6
20260502190503 64 269 3.0 11.0 0.00 0.00 0.00 34 1018.7
20260502190004 64 272 4.0 11.0 0.00 0.00 0.00 32 1018.9
20260502185503 64 265 4.0 10.0 0.00 0.00 0.00 36 1018.9
20260502185003 64 265 3.0 7.0 0.00 0.00 0.00 37 1019.0
20260502184003 64 244 3.0 10.0 0.00 0.00 0.00 35 1019.2
20260502183503 64 239 5.0 11.0 0.00 0.00 0.00 40 1019.2
20260502183214 63 242 5.0 11.0 0.00 0.00 0.00 38 1019.4
20260502182503 63 247 3.0 9.0 0.00 0.00 0.00 41 1019.5
20260502182003 62 242 4.0 9.0 0.00 0.00 0.00 41 1019.5
20260502181503 62 239 4.0 12.0 0.00 0.00 0.00 36 1019.6
20260502181003 62 234 4.0 12.0 0.00 0.00 0.00 35 1019.5
20260502180713 62 234 4.0 12.0 0.00 0.00 0.00 38 1019.5
20260502170503 60 313 2.0 7.0 0.00 0.00 0.00 39 1020.5
20260502170213 60 297 2.0 7.0 0.00 0.00 0.00 41 1020.4
20260502164003 59 230 3.0 11.0 0.00 0.00 0.00 43 1020.7
20260502163503 58 239 4.0 11.0 0.00 0.00 0.00 41 1020.6
20260502163003 58 262 3.0 11.0 0.00 0.00 0.00 43 1020.7
20260502162503 58 264 4.0 11.0 0.00 0.00 0.00 42 1020.8
20260502162003 58 253 3.0 10.0 0.00 0.00 0.00 40 1020.7
20260502161503 58 278 2.0 7.0 0.00 0.00 0.00 39 1020.8
20260502161213 58 309 2.0 6.0 0.00 0.00 0.00 42 1020.8
20260502160503 57 274 3.0 11.0 0.00 0.00 0.00 46 1020.8
20260502160213 57 256 3.0 11.0 0.00 0.00 0.00 43 1020.9
20260502151714 53 245 3.0 8.0 0.00 0.00 0.00 47 1021.0
20260502151003 52 241 2.0 7.0 0.00 0.00 0.00 48 1021.0
20260502150503 52 236 3.0 7.0 0.00 0.00 0.00 51 1021.0
20260502130503 39 0 0.0 0.0 0.00 0.00 0.00 76 1021.2
20260502123713 36 0 0.0 0.0 0.00 0.00 0.00 78 1020.9
20260502123003 36 0 0.0 0.0 0.00 0.00 0.00 79 1021.0
20260502122503 35 0 0.0 0.0 0.00 0.00 0.00 79 1020.9
20260502122003 35 0 0.0 0.0 0.00 0.00 0.00 80 1020.9
20260502121712 35 0 0.0 0.0 0.00 0.00 0.00 80 1020.8
20260502121213 35 0 0.0 0.0 0.00 0.00 0.00 80 1020.8
20260502120503 35 0 0.0 0.0 0.00 0.00 0.00 81 1020.8
20260502115713 35 0 0.0 0.0 0.00 0.00 0.00 81 1020.9
20260502115214 34 0 0.0 0.0 0.00 0.00 0.00 80 1020.8
20260502114712 34 0 0.0 0.0 0.00 0.00 0.00 80 1020.8
20260502114003 34 0 0.0 0.0 0.00 0.00 0.00 79 1020.8
20260502113712 34 0 0.0 0.0 0.00 0.00 0.00 79 1020.8
20260502113003 34 0 0.0 0.0 0.00 0.00 0.00 79 1020.8
20260502112503 34 0 0.0 0.0 0.00 0.00 0.00 79 1020.8
20260502112004 35 0 0.0 0.0 0.00 0.00 0.00 79 1020.7
20260502111503 35 0 0.0 0.0 0.00 0.00 0.00 80 1020.8
20260502111003 35 30 0.0 3.0 0.00 0.00 0.00 80 1020.7
20260502110503 35 30 1.0 3.0 0.00 0.00 0.00 81 1020.8
20260502110004 35 30 0.0 2.0 0.00 0.00 0.00 84 1020.8
20260502105503 35 31 0.0 2.0 0.00 0.00 0.00 83 1020.7
20260502105003 34 0 0.0 0.0 0.00 0.00 0.00 80 1020.7
20260502104714 34 0 0.0 0.0 0.00 0.00 0.00 79 1020.7
20260502104003 35 0 0.0 0.0 0.00 0.00 0.00 79 1020.7
20260502103503 35 0 0.0 0.0 0.00 0.00 0.00 79 1020.6
20260502103004 35 0 0.0 0.0 0.00 0.00 0.00 79 1020.7
20260502102503 35 0 0.0 0.0 0.00 0.00 0.00 78 1020.6
20260502102003 35 0 0.0 0.0 0.00 0.00 0.00 78 1020.6
20260502101503 35 0 0.0 0.0 0.00 0.00 0.00 78 1020.5
20260502101213 35 0 0.0 0.0 0.00 0.00 0.00 78 1020.5
20260502100503 35 0 0.0 0.0 0.00 0.00 0.00 78 1020.6
20260502091503 36 0 0.0 0.0 0.00 0.00 0.00 74 1020.3
20260502091003 36 0 0.0 0.0 0.00 0.00 0.00 74 1020.2
20260502090503 37 0 0.0 0.0 0.00 0.00 0.00 74 1020.3
20260502071503 38 0 0.0 0.0 0.00 0.00 0.00 71 1020.4
20260502071003 38 0 0.0 0.0 0.00 0.00 0.00 71 1020.3
20260502070503 39 0 0.0 0.0 0.00 0.00 0.00 70 1020.3
20260502070004 39 0 0.0 0.0 0.00 0.00 0.00 70 1020.4
20260502065713 39 0 0.0 0.0 0.00 0.00 0.00 70 1020.4
20260502065214 39 0 0.0 0.0 0.00 0.00 0.00 69 1020.3
20260502064503 39 0 0.0 0.0 0.00 0.00 0.00 69 1020.2
20260502064003 39 0 0.0 0.0 0.00 0.00 0.00 68 1020.3
20260502063503 40 0 0.0 0.0 0.00 0.00 0.00 68 1020.3